Tracking 31027 objects as of 19-Jul-2025
HD Live streaming from Space Station
objects crossing your sky now

FENGYUN 1C DEB

Track FENGYUN 1C DEB now!
10-day predictions


NORAD ID: 32245
Int'l Code: 1999-025CWT
Perigee: 583.2 km
Apogee: 730.0 km
Inclination: 98.7 °
Period: 97.7 minutes
Semi major axis: 7027 km
RCS: 0.0014 m2 (small)
Launch date: May 10, 1999
Source: People's Republic of China (PRC)
Launch site: Taiyaun Space Center, China (TSC)

Note: This is SATELLITE DEBRIS
Your satellite tracking list
ATLAS 2A CENTAUR R/B
Track 1 satellite(s)




NASA's NSSDC Master Catalog

Two Line Element Set (TLE):
1 32245U 99025CWT 25199.76297412  .00006710  00000-0  95153-3 0  9995
2 32245  98.6639  25.5445 0104397  85.2096 276.1022 14.73641000639394
Source of the keplerian elements: AFSPC